Location: Aghk�ilisa
(40.0189°N, 45.0097°E)
Time: 17:24:28
(UTC+00:00)

DMSP B5D1-3 - Pass Details

Date: 21 October 2019
Orbit: 768 x 780 km, 98.5° (Epoch: 18 November)

Event Time Altitude Azimuth Distance (km) Brightness Sun altitude
Rises 15:39:35 0° 14° (NNE) 3,260 7.6 -17.4°
Reaches altitude 10° 15:41:54 10° 15° (NNE) 2,330 6.9 -17.8°
Maximum altitude 15:47:03 82° 103° (ESE) 789 4.4 -18.8°
Drops below altitude 10° 15:52:11 10° 192° (SSW) 2,321 7.1 -19.8°
Sets 15:54:29 0° 193° (SSW) 3,246 7.9 -20.2°
